Dewpoint
57 57 57 56 56 56 56 56 56 56 56 56 56 55 55 55 55 55 55 56 56 56 56 57 57 58 54 45 41 56 67 64 52 45 44 42 38 54 56 57 58 55 58 57 59 60 60
57 57 57 57 56 56 56 56 56 56 56 55 55 55 55 55 55 56 57 57 56 56 56 57 58 58 51 39 47 58 45 48 42 40 36 38 49 57 57 57 57 57 59 58 58 59 59
57 57 57 57 56 56 56 56 56 56 56 55 56 56 55 54 55 55 56 56 56 56 56 57 58 56 49 38 44 49 40 39 41 38 33 35 34 37 58 57 59 59 57 58 58 59 59
57 57 57 57 57 56 56 56 56 56 55 56 56 56 55 55 54 55 55 56 56 56 57 59 58 54 43 49 44 38 33 28 33 40 38 36 31 47 55 57 55 57 57 52 56 58 58
59 59 58 58 57 57 57 56 57 57 57 57 56 56 55 55 54 54 53 55 56 56 58 58 53 50 41 51 39 37 31 28 24 23 24 23 32 52 54 53 52 54 48 52 54 58 56
59 58 58 58 58 58 58 58 58 58 58 57 57 56 56 56 55 54 53 54 57 56 56 55 52 42 40 34 27 31 33 30 25 18 19 21 40 43 45 47 43 50 51 51 52 54 56
58 57 57 58 58 58 58 58 58 57 57 56 57 57 56 55 54 53 50 48 38 36 51 32 34 34 38 39 29 30 27 18 19 15 16 19 31 37 41 47 47 50 50 48 52 55 55
58 58 58 59 58 58 57 57 57 57 56 56 56 56 56 55 54 52 49 36 38 37 35 38 40 41 42 31 24 26 21 17 16 12 16 13 16 21 35 37 40 50 46 46 51 54 54
58 58 58 59 58 58 57 57 57 56 56 56 56 56 55 54 53 47 41 37 41 44 33 31 38 39 35 26 24 25 20 17 13 11 11 12 14 24 28 32 47 46 43 45 44 51 56
58 58 59 59 58 58 58 57 57 56 56 55 56 56 55 53 38 40 29 35 33 35 28 29 27 28 26 24 24 26 19 20 23 16 16 13 14 15 16 19 47 44 46 45 50 50 45
59 59 59 59 58 58 58 57 56 56 55 55 55 55 53 51 35 26 28 38 35 32 24 31 24 27 26 25 24 24 23 24 23 22 21 21 21 19 25 29 40 30 46 46 51 48 46
60 59 59 59 58 58 57 57 56 55 55 55 55 54 53 48 46 40 42 34 33 28 26 28 22 23 22 23 22 23 22 24 24 23 24 22 22 21 26 27 24 40 41 32 45 45 40
59 59 59 59 58 58 57 57 56 55 54 54 53 52 52 48 21 36 33 35 30 26 31 24 19 20 21 20 22 20 20 18 18 22 18 20 21 21 23 21 21 23 23 22 28 38 38
59 59 59 58 58 58 58 57 55 55 54 53 52 51 51 49 43 36 36 32 31 31 32 30 20 21 19 21 21 20 21 17 19 19 19 19 20 23 23 18 17 18 17 20 22 29 33
59 59 58 57 58 58 58 56 55 54 53 53 51 48 46 45 48 37 34 29 29 31 31 28 20 15 18 20 20 21 21 20 20 20 19 20 21 30 34 33 18 25 35 35 38 35 33
58 58 58 57 58 58 58 56 55 54 53 53 49 47 42 43 41 35 32 31 32 33 30 27 23 20 20 21 21 19 20 22 22 22 22 21 19 25 33 37 37 32 37 31 34 30 29
58 57 57 57 58 58 57 56 55 54 53 52 47 35 34 42 36 34 30 31 33 32 29 27 24 19 20 23 22 21 24 27 26 28 27 24 22 25 36 35 33 31 32 37 38 37 33
57 57 57 57 57 57 57 56 54 53 52 51 46 33 31 38 32 35 32 33 34 29 31 29 25 20 18 20 26 28 29 26 25 27 26 31 33 34 34 38 40 40 34 34 31 34 39
57 57 57 57 58 57 57 55 54 53 53 51 45 45 45 36 33 32 34 34 34 31 32 32 29 25 18 21 23 28 29 28 30 27 25 26 29 32 31 26 35 33 36 36 37 40 38
57 56 57 58 57 57 56 55 54 53 53 50 45 40 42 41 40 37 34 34 33 35 37 30 29 26 21 20 21 23 27 28 29 30 53 36 24 29 28 22 29 35 36 35 33 34 35
57 57 58 57 57 56 56 55 54 53 53 50 47 41 45 41 42 41 36 34 33 33 32 31 31 31 27 19 22 21 25 26 32 52 28 22 20 24 24 24 26 30 33 36 36 36 34
56 57 57 57 56 56 56 56 55 53 53 51 48 47 48 46 44 39 38 33 35 36 37 34 37 37 30 25 22 22 23 24 27 32 27 29 26 28 27 29 26 28 29 34 37 38 43
56 56 56 56 55 56 56 56 52 52 52 48 49 49 49 45 43 39 38 42 40 40 38 39 39 39 33 33 31 28 23 24 24 20 22 28 27 25 25 27 24 24 26 28 38 40 43
55 54 55 55 55 56 56 56 54 54 54 53 49 48 46 44 44 43 43 45 42 42 39 39 40 38 37 37 25 24 23 18 18 17 24 26 26 26 22 24 19 22 29 34 40 42 44
53 52 54 55 55 55 55 56 55 55 55 53 52 48 48 44 47 47 45 44 42 43 40 42 43 41 43 31 26 24 25 24 24 22 21 22 27 26 21 21 21 23 35 39 39 45 49
51 52 53 54 54 54 55 56 57 55 56 54 51 51 50 49 44 47 46 46 42 41 40 40 42 45 38 30 28 24 24 24 25 28 29 28 26 24 26 21 19 25 38 46 43 39 50
51 50 52 54 54 54 55 55 57 57 56 54 51 52 51 49 49 47 46 44 45 43 41 41 44 46 39 37 31 30 28 32 30 28 28 30 28 22 27 22 25 30 40 43 29 33 49
50 50 51 53 54 53 55 55 55 56 56 54 51 52 51 50 48 49 47 46 46 44 41 44 44 46 44 38 37 32 32 33 34 35 31 30 29 28 30 28 27 37 37 31 38 48 50
51 50 50 52 53 54 54 55 55 56 56 55 50 51 51 49 47 50 49 49 49 47 44 44 44 46 46 40 40 39 37 37 34 33 38 31 33 32 31 32 35 39 33 42 49 49 49
Lifted_Index
15 15 15 15 16 16 16 16 17 17 17 17 17 17 17 17 16 16 15 14 14 13 14 14 14 13 11 9 7 7 7 8 9 8 7 6 4 1 -1 -1 -1 -1 -2 -2 -1 -0 -1
14 14 15 15 15 15 16 16 16 16 16 17 17 17 17 17 16 15 14 14 13 13 14 14 13 12 10 9 8 8 9 10 9 8 7 6 4 1 -1 -1 -1 -2 -2 -2 -1 -1 -1
14 14 14 14 14 14 15 15 15 15 16 16 16 17 16 15 14 14 13 13 13 13 13 13 11 10 9 8 8 9 10 11 10 8 7 6 5 1 -1 -1 -1 -2 -2 -2 -1 -1 -1
13 13 13 13 13 13 14 14 14 14 15 15 15 16 15 14 14 13 13 12 12 12 12 11 10 8 8 8 8 9 10 10 10 8 8 7 5 1 -1 -1 -1 -1 -1 -1 -1 -1 -1
12 12 12 12 12 12 12 13 13 14 14 14 15 15 14 14 13 12 12 11 11 11 11 10 9 8 8 8 8 9 9 9 9 8 7 7 4 0 -1 -1 -0 -1 -1 -1 -1 -1 -1
11 11 11 11 12 12 12 12 12 13 13 14 14 14 14 13 12 11 10 10 10 10 10 9 8 8 8 8 8 8 8 8 8 7 5 4 3 0 -1 -1 -0 -0 -1 -1 -1 -1 -2
11 11 11 11 11 11 11 11 12 12 12 13 13 14 14 13 12 11 10 9 9 9 8 8 8 7 7 8 8 8 7 8 7 6 4 3 2 1 0 -0 -0 -1 -1 -1 -1 -2 -2
11 11 11 11 11 11 11 11 11 11 12 12 12 13 13 13 12 10 9 9 9 8 8 7 7 7 7 7 7 7 7 8 7 6 5 3 2 2 1 1 -0 -1 -2 -1 -1 -2 -2
11 11 11 10 10 10 10 11 11 11 11 11 11 12 13 13 12 10 9 9 9 8 7 7 7 7 7 7 7 7 7 7 6 5 5 4 3 2 2 1 -1 -2 -2 -1 -1 -1 -2
10 10 10 10 10 10 10 10 10 10 11 11 11 11 12 12 11 10 9 9 8 7 6 6 6 6 7 7 7 6 7 6 6 5 5 4 3 2 2 1 -1 -2 -2 -2 -2 -2 -2
9 9 9 10 10 10 9 9 9 10 10 10 10 11 11 12 11 9 9 8 8 6 4 5 6 6 6 6 6 6 6 6 5 5 4 3 3 2 1 0 -1 -2 -2 -2 -2 -2 -2
9 9 9 9 9 9 9 9 9 9 10 10 10 10 11 12 11 10 9 8 7 5 4 4 5 6 5 5 5 5 5 5 5 4 3 3 2 2 1 1 0 -1 -2 -2 -2 -2 -2
8 8 9 9 9 9 9 9 9 9 9 10 10 10 10 11 12 11 9 7 5 4 4 5 5 5 4 4 4 4 4 4 3 3 2 2 2 2 1 1 1 1 -0 -0 -1 -1 -0
8 9 9 9 9 9 9 9 9 9 9 9 10 10 10 11 12 11 9 6 4 4 4 5 5 4 4 3 3 3 2 2 2 2 2 1 1 1 1 1 2 2 1 1 0 0 0
8 9 9 9 9 10 10 9 9 10 9 9 9 10 10 11 11 10 8 5 3 3 4 4 4 4 3 3 3 2 2 2 2 2 1 1 1 1 1 1 1 1 1 0 -0 0 0
8 9 9 10 10 10 10 10 10 10 10 9 9 9 9 9 10 9 6 4 3 3 4 4 4 3 3 3 2 2 2 2 2 2 2 1 1 0 0 0 0 0 -0 -0 -0 -0 0
8 9 9 10 11 11 11 10 10 10 10 10 9 9 8 9 9 8 6 4 4 4 4 4 4 4 3 2 2 2 2 2 2 2 2 1 1 1 -0 -0 -0 -0 -0 0 0 0 0
8 9 9 11 12 12 11 11 11 11 10 9 9 8 8 8 7 6 5 4 4 4 4 4 4 4 4 3 2 1 2 2 2 2 2 2 2 1 0 0 0 0 0 1 1 0 0
8 9 9 11 12 12 11 11 11 11 10 9 8 7 7 6 6 5 5 4 3 3 3 3 3 3 3 3 2 1 1 1 2 2 3 3 3 2 1 1 1 1 1 1 1 0 0
9 9 10 12 13 12 12 12 12 11 10 9 8 7 6 5 5 4 4 3 3 2 2 2 2 2 3 3 2 2 1 1 2 2 3 4 3 3 2 2 3 2 1 1 0 0 0
10 11 12 13 13 13 13 13 12 11 10 9 7 6 5 5 5 4 3 3 2 2 1 2 1 1 2 3 2 2 2 2 2 2 3 4 3 3 3 3 3 2 2 1 0 -0 -0
12 13 13 14 14 14 14 14 13 12 10 9 7 6 5 5 5 4 4 3 2 1 1 1 1 1 1 2 2 2 2 2 2 2 3 3 3 3 3 2 2 2 2 1 0 -0 -1
14 14 14 14 14 14 14 14 13 12 10 9 8 7 6 5 5 4 4 3 2 2 1 0 0 0 0 1 2 2 2 2 2 3 3 3 3 3 3 2 2 2 1 1 0 -0 -1
14 14 14 14 14 14 14 14 14 12 11 10 9 8 6 5 4 4 4 4 3 3 2 1 -0 -0 -0 0 1 1 2 2 2 3 3 3 3 3 3 3 2 2 1 -0 -1 -1 -1
15 15 15 15 14 14 14 13 13 12 11 10 10 8 7 5 4 4 4 4 4 3 2 1 -1 -1 -0 0 1 1 2 2 2 3 3 2 2 3 3 3 2 2 0 -1 -1 -2 -2
16 16 15 15 14 14 13 13 12 11 11 10 10 9 7 6 5 4 4 4 3 3 2 1 -1 -1 -1 0 1 1 1 2 2 2 2 2 2 3 3 2 2 1 -0 -1 -1 -2 -2
16 16 15 14 14 13 13 12 11 10 10 10 9 8 7 6 5 4 4 4 3 3 2 1 -1 -1 -1 -0 0 1 1 1 1 2 2 2 2 2 2 2 2 1 -0 -1 -1 -1 -2
15 15 15 14 13 13 12 11 10 10 10 10 9 8 7 6 5 5 4 3 3 3 2 1 0 -1 -1 -1 0 1 1 1 1 1 1 1 1 2 2 2 1 1 0 -0 -1 -1 -2
15 15 14 14 13 12 11 11 10 10 10 10 9 7 7 6 5 5 4 3 3 3 2 2 1 -0 -1 -1 -0 1 1 1 1 0 0 0 1 1 1 1 1 1 1 0 -1 -2 -2